Location: Wangen+im+Allg�u
(47.7098°N, 9.8383°E)
Time: 12:36:42
(UTC+01:00)

ISS - Pass Details

Date: 08 January 2018
Orbit: 402 x 407 km, 51.6° (Epoch: 19 January)

Event Time Altitude Azimuth Distance (km) Brightness Sun altitude
Exits shadow 06:38:55 28° 311° (NW) 799 -2.9 -14.4°
Maximum altitude 06:40:19 50° 13° (NNE) 525 -3.4 -14.2°
Drops below altitude 10° 06:43:33 10° 91° (E) 1,468 0.3 -13.6°
Sets 06:45:40 0° 97° (E) 2,328 1.8 -13.3°
